Powrót do katalogu

MOLNIYA 3-50

AktywnyŁącznośćHEO
NORAD 25847·PAYLOAD·🇷🇺 Russia

Wystrzelony Jul 8, 1999 z Plesetsk Cosmodrome

Loading…

Następne Przeloty (najbliższe 24 godziny)

TLE

ŚwieżeSource: Space-Track

Epoka: Sep 11, 2026, 17:58 UTC

1 25847U 99036A   26254.74907002  .00000143  00000-0  00000-0 0  9999
2 25847  63.5320 146.7466 6762528 276.2706  16.6283  2.00636391199158

Śledź MOLNIYA 3-50 w czasie rzeczywistym z AllMySat

Download on the App Store